Das Wetter in  D-61279 Heinzenberg / Taunus





Wetter Minimum- & Maximum-Werte im Januar 2015

Standort: Heinzenberg / Taunus - Höhe 297 m         8 24' 1" Ost 50 21' 51" Nord
(   3-stündige Aktualisierung    letzte Aktualisierung um 19:04 am 31.01.2015  )


Messgrösse

Minimum

Maximum

Durchschnitt

Temperatur West /
Luftfeuchte West
Anklicken für Monats-Diagramm

-6,7 C

08:09
21.01.2015

54 %

14:16
13.01.2015

13,7 C

06:44
10.01.2015

93 %

00:02
01.01.2015

Temp

2,0 C

Feuchte

85 %

Temperatur Ost /
Luftfeuchte Ost
Anklicken für Monats-Diagramm

-6,5 C

09:04
21.01.2015

--

--
--

13,8 C

06:44
10.01.2015

--

--
--

2,0 C

--

Luftdruck Anklicken für Monats-Diagramm

972,4 hPa

02:42
30.01.2015

1038,7 hPa

07:42
01.01.2015

1016,7 hPa

Taupunkt

-8,5 C

08:09
21.01.2015

11,0 C

06:44
10.01.2015

-0,3 C

Windchill
( gefühlte Temperatur )

-15,3 C

07:32
30.01.2015

7,6 C

04:54
10.01.2015

-2,5 C

Windgeschwindigkeit /
Windrichtung
Anklicken für Monats-Diagramm

---

67,8 km/h / W-SW

16:11
13.01.2015

12,9 km/h
W-SW

Helligkeit /
Sonnenschein
Anklicken für Monats-Diagramm
Anklicken für Monats-Diagramm

Sonnenschein:

30:50 Stunden

Max: 6:40 Std am
05.01.2015

51,0 klux

12:51
29.01.2015

7,3 klux

Solarstrahlung Anklicken für Monats-Diagramm

---

349 W/m

12:51
29.01.2015

57 W/m

Regenmenge
    Januar 2015
Anklicken für Monats-Diagramm

Insgesamt 44,2 l/m

in 99:01 Stunden
an 21 Tagen

9,7 l/m

13:39
03.01.2015

Gesamtmenge

44,2 l/m

Regen-Tage
    Januar 2015
Anklicken für Monats-Diagramm

>   0 mm/Tag

>   2 mm/Tag

>   5 mm/Tag

> 10 mm/Tag

> 20 mm/Tag

21 Tage     
9 Tage     
2 Tage     
0 Tage     
0 Tage     

Eisige Tage Januar 2015 / 2014

Tmin ≤ -10C     

0 Tage

/

0 Tage

Eistage Januar 2015 / 2014

Tmax <     0C     

  1 Tag

/

0 Tage

Frosttage Januar 2015 / 2014

Tmin ≤     0C     

15 Tage

/

7 Tage

Kalte Tage Januar 2015 / 2014

Tmax <   10C     

28 Tage

/

25 Tage

Warme Tage Januar 2015 / 2014

Tmax ≥   20C     

0 Tage

/

0 Tage

Sommertage Januar 2015 / 2014

Tmax ≥   25C     

0 Tage

/

0 Tage

Heisse Tage Januar 2015 / 2014

Tmax ≥   30C     

0 Tage

/

0 Tage


Monatsdiagramm Januar 2015

Die Kurven zeigen den Durchschnittswert des jeweiligen Tages an


Wetter-Monatsübersicht Januar 2015
Datum
  Temperatur
   Luftdruck
   Wind
  Regen
   Luftfeuchte
   Helligkeit

Sonnen-
schein


Temp.

Min.
Temp.

Max.
Temp.


Luftdruck

Min.
Luftdruck

Max.
Luftdruck

-Geschw.
Haupt-Richtg.

Max.
Wind

Menge /
Dauer


Feuchte

Min.
Feuchte

Max.
Feuchte


Helligkeit

Max.
Helligkeit

1.
Januar
1,9 C0,7 C
23:48
3,7 C
15:12
1036,1 hPa1032,5 hPa
23:08
1038,7 hPa
07:42
4,2 km/h
W-SW
24,5 km/h
23:03  
---
92 %89 %
21:32
93 %
00:02
6,33 klux14,20 klux
10:42
10 Min 
2.
Januar
2,4 C0,7 C
00:03
4,3 C
15:08
1029,7 hPa1026,9 hPa
13:08
1033,4 hPa
23:59
20,5 km/h
W
42,2 km/h
13:03  
4,3 l/m
4:24 Stunden
87 %79 %
05:23
91 %
10:23
2,3 klux6,1 klux
15:13
--- 
3.
Januar
1,4 C0,1 C
20:04
3,0 C
12:14
1025,6 hPa1016,0 hPa
18:19
1034,6 hPa
02:44
7,1 km/h
W-SW
26,6 km/h
10:04  
9,7 l/m
9:25 Stunden
87 %82 %
00:04
92 %
21:54
2,81 klux8,72 klux
11:24
--- 
4.
Januar
1,5 C0,2 C
07:15
2,8 C
14:30
1031,8 hPa1024,3 hPa
00:00
1036,6 hPa
23:01
12,9 km/h
W-NW
23,1 km/h
02:15  
---
25 Minuten
90 %87 %
14:35
93 %
01:55
9,46 klux37,90 klux
13:30
1:10 Std 
5.
Januar
-0,0 C-3,9 C
23:51
3,8 C
15:01
1033,9 hPa1030,9 hPa
20:01
1036,9 hPa
05:11
5,0 km/h
W
20,3 km/h
00:36  
---
86 %76 %
15:51
90 %
00:01
17,3 klux31,1 klux
12:41
6:40 Std 
6.
Januar
-3,4 C-6,1 C
08:16
-0,2 C
14:41
1026,4 hPa1023,4 hPa
14:51
1031,1 hPa
00:01
1,3 km/h
SO
8,3 km/h
07:16  
---
89 %88 %
00:01
91 %
20:31
10,6 klux21,2 klux
12:06
55 Min 
7.
Januar
1,3 C-2,2 C
00:02
3,5 C
13:52
1029,2 hPa1025,7 hPa
00:32
1030,5 hPa
21:52
7,3 km/h
W-SW
26,3 km/h
23:33  
0,3 l/m
2:55 Stunden
90 %86 %
16:12
93 %
08:47
9,9 klux36,2 klux
13:37
1:20 Std 
8.
Januar
4,5 C0,6 C
00:18
8,0 C
19:33
1025,0 hPa1019,2 hPa
19:03
1029,9 hPa
23:59
21,2 km/h
W-SW
64,6 km/h
19:38  
5,3 l/m
8:55 Stunden
89 %86 %
01:43
92 %
14:03
4,3 klux27,8 klux
11:23
10 Min 
9.
Januar
7,4 C4,4 C
02:14
10,6 C
23:59
1021,8 hPa1013,7 hPa
23:59
1030,0 hPa
00:24
29,5 km/h
W
56,8 km/h
18:49  
4,6 l/m
5:55 Stunden
83 %65 %
18:49
93 %
23:59
2,4 klux6,9 klux
10:09
--- 
10.
Januar
11,0 C3,5 C
23:50
13,7 C
06:44
1013,0 hPa1009,2 hPa
14:14
1016,7 hPa
23:50
37,0 km/h
W
64,7 km/h
18:09  
1,4 l/m
4:31 Stunden
81 %66 %
21:59
93 %
00:04
6,79 klux39,00 klux
10:49
50 Min 
11.
Januar
3,0 C2,2 C
03:35
3,8 C
00:30
1019,4 hPa1015,6 hPa
01:00
1024,0 hPa
22:55
29,1 km/h
W
47,6 km/h
21:10  
0,3 l/m
4:40 Stunden
75 %66 %
00:35
88 %
23:00
5,6 klux26,2 klux
11:05
20 Min 
12.
Januar
5,4 C3,1 C
00:00
6,6 C
20:15
1020,3 hPa1016,3 hPa
23:56
1024,0 hPa
00:00
29,0 km/h
W
61,4 km/h
11:30  
0,3 l/m
2:55 Stunden
80 %75 %
11:05
87 %
03:40
4,1 klux15,2 klux
11:50
--- 
13.
Januar
8,2 C5,8 C
08:56
11,7 C
14:11
1011,1 hPa1007,3 hPa
14:11
1016,3 hPa
00:01
31,2 km/h
W-SW
67,8 km/h
16:11  
0,2 l/m
55 Minuten
70 %54 %
14:16
83 %
20:41
16,4 klux35,3 klux
13:11
5:05 Std 
14.
Januar
4,2 C1,4 C
22:02
7,6 C
00:02
1012,4 hPa1007,9 hPa
03:57
1018,0 hPa
22:02
20,8 km/h
W-SW
54,4 km/h
13:17  
2,3 l/m
4:50 Stunden
81 %70 %
12:57
87 %
14:37
4,4 klux16,9 klux
12:12
15 Min 
15.
Januar
7,1 C2,0 C
00:18
9,6 C
16:08
1006,4 hPa1002,4 hPa
16:08
1016,9 hPa
00:18
27,1 km/h
W-SW
48,5 km/h
12:38  
---
75 %66 %
16:03
83 %
01:13
7,4 klux20,5 klux
10:53
5 Min 
16.
Januar
5,3 C3,5 C
22:19
8,8 C
00:04
1007,2 hPa1003,6 hPa
00:04
1009,4 hPa
23:45
6,7 km/h
W-SW
30,1 km/h
00:49  
2,3 l/m
5:35 Stunden
84 %73 %
00:04
90 %
21:24
2,8 klux6,8 klux
12:14
--- 
17.
Januar
2,2 C-1,9 C
22:46
4,0 C
13:40
1014,8 hPa1009,4 hPa
00:00
1019,5 hPa
22:51
5,1 km/h
W
18,2 km/h
05:10  
---
35 Minuten
86 %79 %
13:55
91 %
03:00
8,76 klux29,20 klux
12:20
40 Min 
18.
Januar
-0,4 C-3,3 C
22:32
3,0 C
15:56
1016,8 hPa1014,7 hPa
15:56
1019,5 hPa
01:21
4,9 km/h
W-SW
22,9 km/h
12:36  
---
81 %72 %
16:51
88 %
02:56
16,2 klux46,9 klux
13:06
4:30 Std 
19.
Januar
-1,9 C-4,3 C
02:47
1,2 C
12:42
1012,7 hPa1010,8 hPa
15:02
1015,6 hPa
01:42
1,4 km/h
NW
12,1 km/h
13:32  
---
86 %82 %
16:52
89 %
11:17
13,2 klux32,9 klux
12:07
2:50 Std 
20.
Januar
-1,4 C-5,3 C
23:54
0,3 C
14:43
1012,6 hPa1011,0 hPa
00:13
1014,7 hPa
23:54
0,3 km/h
NW
6,5 km/h
10:48  
0,2 l/m
55 Minuten
87 %85 %
00:03
89 %
06:13
3,7 klux7,4 klux
13:43
--- 
21.
Januar
-2,8 C-6,7 C
08:09
0,5 C
19:24
1013,4 hPa1011,9 hPa
15:09
1014,9 hPa
02:59
2,0 km/h
O-SO
16,1 km/h
21:19  
---
85 %81 %
20:59
89 %
10:19
4,40 klux13,20 klux
09:39
10 Min 
22.
Januar
-0,4 C-1,7 C
07:25
0,7 C
16:00
1016,1 hPa1013,0 hPa
00:00
1020,2 hPa
21:30
5,4 km/h
NO
18,7 km/h
07:10  
---
83 %82 %
00:00
85 %
22:56
3,4 klux6,7 klux
14:05
--- 
23.
Januar
-0,2 C-3,7 C
22:22
2,7 C
16:06
1024,3 hPa1020,2 hPa
00:01
1027,0 hPa
22:22
1,8 km/h
NO
15,1 km/h
03:41  
---
82 %74 %
16:11
86 %
00:26
6,74 klux21,40 klux
15:21
1:05 Std 
24.
Januar
-1,3 C-3,7 C
01:02
0,6 C
21:57
1022,8 hPa1019,3 hPa
13:47
1026,9 hPa
00:17
3,2 km/h
W-SW
20,5 km/h
11:07  
1,5 l/m
5:00 Stunden
88 %83 %
12:52
90 %
18:12
3,8 klux10,6 klux
12:42
--- 
25.
Januar
0,1 C-2,9 C
04:53
1,7 C
15:18
1029,1 hPa1026,6 hPa
00:03
1030,7 hPa
08:53
2,4 km/h
W
14,0 km/h
13:48  
0,3 l/m
3:50 Stunden
91 %90 %
00:03
92 %
10:33
5,5 klux15,2 klux
10:58
--- 
26.
Januar
1,4 C0,7 C
03:08
2,5 C
21:38
1022,7 hPa1017,9 hPa
20:58
1029,4 hPa
00:03
8,0 km/h
W-SW
24,3 km/h
23:14  
2,9 l/m
12:41 Stunden
92 %91 %
07:18
92 %
00:03
3,5 klux10,6 klux
12:38
--- 
27.
Januar
2,0 C0,8 C
06:39
3,1 C
13:14
1021,8 hPa1018,9 hPa
00:04
1023,1 hPa
11:04
13,2 km/h
W-NW
29,9 km/h
12:20  
0,3 l/m
4:40 Stunden
91 %88 %
14:24
92 %
00:04
6,6 klux34,1 klux
11:34
20 Min 
28.
Januar
2,3 C0,6 C
22:05
3,5 C
17:15
1011,1 hPa998,0 hPa
20:30
1023,0 hPa
00:15
19,8 km/h
W-SW
50,2 km/h
17:30  
1,2 l/m
5:20 Stunden
88 %83 %
17:15
91 %
01:15
3,7 klux10,7 klux
12:45
--- 
29.
Januar
1,3 C-0,4 C
05:41
2,9 C
15:36
989,6 hPa974,4 hPa
22:42
999,5 hPa
04:06
18,0 km/h
W-SW
40,4 km/h
01:26  
4,4 l/m
6:45 Stunden
85 %82 %
05:11
89 %
00:01
8,7 klux51,0 klux
12:51
20 Min 
30.
Januar
0,0 C-1,0 C
07:02
1,7 C
15:02
977,2 hPa972,4 hPa
02:42
979,9 hPa
22:02
11,9 km/h
W
35,6 km/h
04:42  
2,6 l/m
3:50 Stunden
87 %81 %
15:02
92 %
03:37
11,5 klux46,2 klux
11:32
1:15 Std 
31.
Januar
0,2 C-2,4 C
23:49
2,9 C
13:48
983,3 hPa979,8 hPa
01:58
987,4 hPa
23:49
11,1 km/h
W-SW
30,6 km/h
04:58  
---
83 %75 %
13:58
88 %
23:14
15,0 klux48,8 klux
13:43
2:40 Std 



Januar
2015

Temperatur

  

Luftdruck

  

Wind

  

Regen

  

Luftfeuchte

  

Helligkeit

Sonnen-
schein

Min

Max

Min

Max

Max

Max

Min

Max

Max

Max

2,0 C

-6,7 C

08:09 Uhr
21.01.2015

13,7 C

06:44 Uhr
10.01.2015

1016,7 hPa

972,4 hPa

02:42 Uhr
30.01.2015

1038,7 hPa

07:42 Uhr
01.01.2015

12,9 km/h

W-SW

67,8 km/h

16:11 Uhr
13.01.2015

9,7 l/m

9:25 Stunden
03.01.2015

85 %

54 %

14:16 Uhr
13.01.2015

93 %

00:02 Uhr
01.01.2015

7,3 klux

51,00 klux

12:51 Uhr
29.01.2015

6:40 Std

am
05.01.2015

Gesamt

Gesamt

44,2 l/m

21 Tage
99:01 h

30:50 Std


Wetter-Diagramme Januar 2015     Heinzenberg / Taunus   
TemperaturLuftfeuchte
SolarstrahlungLuftdruck
HelligkeitSonnenschein
RegenmengeRegendauer
Wind-GeschwindigkeitWind-Richtung